EZY36U EGNS-EGGP

Flight info

Callsign EZY36U
Flight time N/A
Altitude 17000
Route TIMIS Q39 DANDI DCT PENIL
Aircraft A319/M-SDE3FGHIRWY/LB1

Departure

Time 2026-04-09 14:18
Airport Isle of Man Airport (EGNS)

Arrival

Time N/A
Airport Liverpool John Lennon Airport (EGGP)
Time Latitude Longitude Altitude Speed Heading
2026-04-09 14:07 54.08596 -4.63215 54 ft 0 kts 224°
2026-04-09 14:10 54.08596 -4.63214 55 ft 0 kts 224°
2026-04-09 14:11 54.08602 -4.63204 55 ft 2 kts 224°
2026-04-09 14:11 54.08611 -4.63190 55 ft 0 kts 224°
2026-04-09 14:11 54.08624 -4.63174 55 ft 2 kts 197°
2026-04-09 14:11 54.08640 -4.63170 55 ft 2 kts 173°
2026-04-09 14:12 54.08655 -4.63179 55 ft 2 kts 147°
2026-04-09 14:12 54.08662 -4.63188 56 ft 1 kts 133°
2026-04-09 14:12 54.08666 -4.63194 56 ft 0 kts 133°
2026-04-09 14:13 54.08665 -4.63194 56 ft 0 kts 133°
2026-04-09 14:14 54.08649 -4.63167 55 ft 6 kts 136°
2026-04-09 14:14 54.08603 -4.63087 54 ft 11 kts 134°
2026-04-09 14:14 54.08526 -4.63018 52 ft 13 kts 166°
2026-04-09 14:14 54.08415 -4.62982 48 ft 16 kts 168°
2026-04-09 14:15 54.08302 -4.62879 45 ft 19 kts 118°
2026-04-09 14:15 54.08295 -4.62634 43 ft 21 kts 77°
2026-04-09 14:15 54.08329 -4.62386 41 ft 22 kts 76°
2026-04-09 14:15 54.08363 -4.62094 40 ft 25 kts 77°
2026-04-09 14:16 54.08406 -4.61759 40 ft 28 kts 77°
2026-04-09 14:16 54.08451 -4.61411 41 ft 28 kts 77°
2026-04-09 14:16 54.08492 -4.61073 40 ft 26 kts 77°
2026-04-09 14:16 54.08520 -4.60940 40 ft 3 kts 108°
2026-04-09 14:17 54.08511 -4.60952 40 ft 3 kts 244°
2026-04-09 14:17 54.08503 -4.60993 40 ft 0 kts 259°
2026-04-09 14:17 54.08503 -4.60994 40 ft 1 kts 259°
2026-04-09 14:17 54.08431 -4.61571 41 ft 91 kts 259°
2026-04-09 14:18 54.08240 -4.63079 387 ft 130 kts 259°
2026-04-09 14:18 54.08025 -4.64649 1206 ft 131 kts 259°
2026-04-09 14:18 54.07772 -4.66200 1768 ft 151 kts 249°
2026-04-09 14:18 54.06841 -4.67503 1980 ft 207 kts 202°
2026-04-09 14:19 54.05237 -4.67361 2029 ft 259 kts 163°
2026-04-09 14:19 54.03543 -4.65851 2735 ft 282 kts 155°
2026-04-09 14:19 54.02180 -4.64630 3717 ft 279 kts 158°